Tracking 34348 objects as of 9-Jun-2026
HD Live streaming from Space Station
objects crossing your sky now

DELTA 1 DEB

Track DELTA 1 DEB now!
10-day predictions


NORAD ID: 39097
Int'l Code: 1973-086HK
Perigee: 1,515.2 km
Apogee: 1,563.8 km
Inclination: 102.4 °
Period: 116.7 minutes
Semi major axis: 7910 km
RCS: 0.0197 m2 (small)
Launch date: November 6, 1973
Source: United States (US)
Launch site: AIR FORCE WESTERN TEST RANGE (AFWTR)

Note: This is SATELLITE DEBRIS
Your satellite tracking list
Your tracking list is empty




NASA's NSSDC Master Catalog

Two Line Element Set (TLE):
1 39097U 73086HK  26151.01153608 -.00000031  00000-0  12192-3 0  9994
2 39097 102.3839 178.1140 0030711 291.6950  98.1339 12.33954218602898
Source of the keplerian elements: AFSPC